Total_Precipitation_Accumulation
1.63 1.66 2.36 2.21 1.99 1.88 1.77 1.71 1.56 1.46 1.37 1.20 1.07 0.92 0.85 0.79 0.77 0.76 0.72 0.64 0.62 0.62 0.63 0.73 0.82 0.74 0.72 0.72 0.70 0.73 0.81 0.91 0.85 0.75 0.76 0.80 0.82 1.02 1.17 1.28 1.39 1.37 1.26
1.25 1.59 2.42 2.28 2.08 1.93 1.80 1.74 1.55 1.33 1.14 1.01 0.96 0.89 0.81 0.73 0.74 0.69 0.62 0.59 0.58 0.54 0.56 0.68 0.80 0.80 0.81 0.83 0.86 0.92 0.98 0.96 0.89 0.83 0.94 1.01 1.02 1.14 1.19 1.27 1.56 1.50 1.23
1.15 1.38 1.86 2.33 2.15 1.95 1.83 1.72 1.56 1.36 1.05 0.88 0.84 0.82 0.74 0.65 0.64 0.64 0.63 0.56 0.57 0.56 0.56 0.64 0.75 0.73 0.78 0.85 0.94 0.97 1.02 1.01 0.92 1.02 1.48 1.96 1.58 1.34 1.20 1.28 1.40 1.27 1.15
1.09 1.25 1.47 2.11 2.04 1.93 1.84 1.63 1.62 1.38 1.03 0.90 0.85 0.80 0.69 0.64 0.67 0.74 0.74 0.63 0.61 0.59 0.57 0.58 0.69 0.69 0.72 0.80 0.83 0.86 0.95 1.00 1.05 1.32 1.86 2.31 2.11 1.64 1.45 1.36 1.30 1.23 1.16
1.09 1.25 1.78 2.16 1.88 1.79 1.64 1.53 1.58 1.43 1.18 1.01 0.88 0.78 0.73 0.69 0.70 0.77 0.72 0.69 0.68 0.65 0.66 0.68 0.72 0.73 0.70 0.69 0.72 0.81 0.96 1.17 1.33 1.40 1.74 2.01 2.16 1.88 1.53 1.36 1.30 1.25 1.29
1.09 1.24 1.66 1.88 1.71 1.64 1.56 1.45 1.41 1.41 1.38 1.15 0.96 0.88 0.86 0.81 0.82 0.84 0.83 0.75 0.75 0.76 0.78 0.76 0.74 0.77 0.76 0.73 0.75 0.85 1.05 1.28 1.33 1.41 1.73 1.92 1.95 1.75 1.44 1.33 1.39 1.49 1.56
0.94 1.06 1.36 1.66 1.55 1.48 1.43 1.38 1.30 1.34 1.41 1.27 1.01 0.99 1.00 0.93 0.93 0.94 0.94 0.84 0.84 0.81 0.82 0.86 0.79 0.81 0.80 0.80 0.84 0.97 1.11 1.15 1.12 1.38 1.73 2.00 1.79 1.57 1.45 1.33 1.35 1.59 1.76
0.97 0.95 1.10 1.41 1.46 1.37 1.37 1.43 1.28 1.23 1.30 1.23 1.09 1.03 0.95 0.95 0.99 1.01 0.94 0.89 0.88 0.88 0.89 0.92 0.90 0.86 0.81 0.83 0.95 1.10 1.19 1.09 0.90 1.06 1.28 1.80 2.08 1.89 1.51 1.30 1.35 1.46 1.63
1.31 1.17 1.03 1.06 1.19 1.24 1.31 1.41 1.31 1.22 1.20 1.12 1.15 1.10 1.06 1.03 0.97 0.92 0.91 0.92 0.91 0.91 0.94 0.95 0.89 0.87 0.87 0.89 0.92 1.02 1.11 1.09 0.99 1.00 1.05 1.62 2.09 1.99 1.56 1.30 1.27 1.47 1.59
1.37 1.24 1.06 0.98 1.00 1.07 1.03 1.17 1.35 1.36 1.25 1.13 1.11 1.12 1.11 1.05 0.94 0.89 0.81 0.85 0.91 0.94 1.01 1.02 0.93 0.93 0.95 0.92 0.92 0.99 1.06 0.96 0.82 0.83 1.04 1.50 2.09 2.10 1.83 1.37 1.16 1.19 1.30
1.14 1.08 1.00 0.97 0.98 1.06 1.10 1.09 1.31 1.39 1.28 1.07 0.97 1.03 1.03 0.86 0.85 0.87 0.80 0.98 1.00 1.06 1.11 1.09 1.06 1.04 0.98 0.95 1.01 1.10 0.97 0.76 0.84 0.86 1.10 1.59 1.99 2.05 1.92 1.55 1.20 1.09 1.12
0.88 0.82 0.78 0.78 0.83 0.94 1.02 1.37 1.57 1.37 1.26 0.98 0.98 0.89 0.93 0.99 1.06 0.88 0.87 1.12 1.15 1.21 1.18 1.17 1.19 1.08 0.89 0.75 0.88 0.98 0.82 0.78 0.82 0.82 1.12 1.64 1.93 1.95 1.82 1.60 1.33 1.18 1.19
0.67 0.60 0.56 0.52 0.53 0.61 0.81 1.16 1.44 1.56 1.53 1.45 1.21 1.00 1.00 0.88 0.78 0.71 0.74 0.87 0.97 1.06 1.03 1.05 1.06 0.89 0.80 0.77 0.72 0.70 0.83 0.82 0.89 0.94 1.20 1.62 1.85 1.92 1.80 1.63 1.41 1.29 1.28
0.65 0.59 0.51 0.47 0.43 0.45 0.54 0.71 0.91 1.05 1.14 1.17 1.02 0.93 1.02 0.90 0.79 0.79 0.78 0.79 0.80 0.91 1.04 1.07 1.04 0.91 0.80 0.70 0.66 0.72 0.80 0.81 0.96 1.20 1.39 1.41 1.63 1.88 1.90 1.74 1.56 1.41 1.35
0.75 0.74 0.63 0.51 0.47 0.46 0.49 0.57 0.64 0.79 0.88 0.90 0.93 0.88 0.92 0.94 0.91 0.87 0.80 0.80 0.75 0.84 0.98 1.08 1.03 0.92 0.89 0.82 0.76 0.87 0.95 1.03 1.07 1.14 1.24 1.27 1.47 1.82 2.07 2.06 1.84 1.59 1.48
0.79 0.76 0.74 0.62 0.58 0.52 0.49 0.52 0.56 0.66 0.74 0.78 0.77 0.76 0.86 0.95 0.95 0.91 0.87 0.90 0.87 0.91 1.04 1.05 0.94 1.00 1.03 0.94 0.81 0.83 0.95 1.02 1.09 1.09 1.13 1.23 1.32 1.46 1.92 2.20 2.15 1.95 1.88
0.78 0.72 0.69 0.69 0.68 0.65 0.61 0.59 0.58 0.64 0.74 0.76 0.73 0.68 0.70 0.79 0.85 0.88 0.89 0.90 0.95 1.05 1.11 1.14 0.96 1.00 0.99 0.91 0.86 0.83 0.86 0.89 0.95 1.00 0.96 0.95 1.05 1.22 1.55 1.98 2.31 2.30 2.34
0.63 0.59 0.62 0.63 0.66 0.71 0.72 0.72 0.73 0.73 0.80 0.77 0.76 0.69 0.64 0.69 0.78 0.92 0.93 0.91 0.95 1.09 1.20 1.25 1.15 1.12 1.07 1.03 1.01 0.96 0.89 0.93 0.89 0.93 0.93 0.88 1.03 1.00 1.22 1.46 1.80 2.07 2.35
0.54 0.53 0.54 0.56 0.57 0.67 0.74 0.77 0.84 0.86 0.87 0.85 0.84 0.75 0.71 0.77 0.85 1.02 1.13 1.15 1.15 1.18 1.18 1.14 1.20 1.21 1.19 1.20 1.12 1.08 1.01 0.98 1.01 0.92 0.93 0.98 0.94 0.98 1.10 1.00 1.10 1.34 1.76
0.47 0.47 0.50 0.54 0.55 0.60 0.73 0.84 0.98 1.09 1.05 1.07 1.02 0.89 0.91 1.06 1.20 1.34 1.35 1.43 1.49 1.39 1.37 1.32 1.35 1.29 1.23 1.29 1.19 1.09 1.02 0.94 1.03 1.04 1.03 1.03 0.99 0.96 1.09 1.05 1.03 0.98 1.23
0.38 0.41 0.45 0.48 0.56 0.60 0.64 0.77 0.98 1.24 1.35 1.44 1.40 1.22 1.17 1.29 1.53 1.75 1.72 1.78 1.81 1.72 1.70 1.74 1.93 1.88 1.61 1.37 1.43 1.28 1.09 0.95 1.07 1.11 1.10 1.13 1.14 1.21 1.28 1.24 1.14 1.09 0.97
0.31 0.32 0.36 0.42 0.52 0.58 0.62 0.79 0.95 1.09 1.09 1.26 1.41 1.39 1.31 1.30 1.45 1.59 1.85 1.96 1.90 1.96 2.10 2.11 2.46 2.60 2.14 1.70 1.72 1.89 1.62 1.40 1.14 1.01 1.06 1.08 1.20 1.41 1.43 1.25 1.16 1.09 0.99
0.27 0.25 0.27 0.32 0.42 0.55 0.68 0.89 1.10 1.28 1.36 1.42 1.35 1.43 1.45 1.38 1.42 1.53 1.68 1.84 1.86 1.94 2.05 2.20 2.54 3.03 2.79 2.21 1.96 2.25 1.99 1.73 1.54 1.20 1.04 1.04 1.19 1.43 1.61 1.51 1.36 1.25 1.08
0.25 0.21 0.23 0.31 0.44 0.64 0.86 1.08 1.32 1.53 1.56 1.44 1.48 1.51 1.41 1.35 1.31 1.38 1.52 1.66 1.79 1.82 1.96 2.06 2.19 2.70 3.06 2.74 2.42 2.09 1.77 1.70 1.81 1.61 1.25 1.19 1.24 1.31 1.43 1.42 1.41 1.44 1.32
0.27 0.27 0.33 0.52 0.76 1.01 1.23 1.48 1.74 1.73 1.61 1.52 1.51 1.48 1.43 1.45 1.42 1.41 1.55 1.62 1.64 1.70 1.80 2.13 2.40 2.67 2.88 2.85 2.76 2.57 2.29 2.02 1.69 1.81 1.72 1.48 1.37 1.28 1.31 1.35 1.37 1.42 1.44
0.55 0.68 0.87 1.14 1.33 1.43 1.55 1.70 1.81 1.76 1.76 1.70 1.51 1.41 1.41 1.47 1.53 1.56 1.61 1.62 1.59 1.62 1.73 1.95 2.24 2.46 2.78 2.96 2.85 2.65 2.51 2.37 2.16 2.04 1.80 1.67 1.64 1.45 1.36 1.35 1.28 1.31 1.42